N4WIB Weather Reports


time (UTC)temp
C
wind
direction
speed
KPH
gust
KPH
rain 1hr
cm
rain 24hr
cm
rain mn
cm
humidity
%
barometer
mb
20260503223019 17 238 0.0 8.0 0.00 0.00 0.00 30 1016.7
20260503221518 17 221 0.0 4.8 0.00 0.00 0.00 30 1016.9
20260503220016 18 208 0.0 4.8 0.00 0.00 0.00 29 1017.0
20260503214533 18 130 0.0 9.7 0.00 0.00 0.00 29 1017.1
20260503213015 18 277 0.0 9.7 0.00 0.00 0.00 31 1017.2
20260503211514 18 252 0.0 8.0 0.00 0.00 0.00 30 1017.3
20260503210012 18 219 0.0 12.9 0.00 0.00 0.00 29 1017.5
20260503204512 18 188 0.0 1.6 0.00 0.00 0.00 31 1017.6
20260503203012 18 249 0.0 8.0 0.00 0.00 0.00 28 1017.8
20260503201510 18 192 0.0 6.4 0.00 0.00 0.00 33 1018.2
20260503200012 17 240 0.0 8.0 0.00 0.00 0.00 30 1018.5
20260503194509 17 220 0.0 0.0 0.00 0.00 0.00 31 1018.7
20260503193010 17 244 0.0 8.0 0.00 0.00 0.00 32 1018.9
20260503191516 17 271 0.0 8.0 0.00 0.00 0.00 29 1019.1
20260503190008 17 194 0.0 1.6 0.00 0.00 0.00 28 1019.2
20260503184508 17 167 0.0 1.6 0.00 0.00 0.00 30 1019.3
20260503183007 17 229 0.0 8.0 0.00 0.00 0.00 27 1019.5
20260503181505 17 273 0.0 8.0 0.00 0.00 0.00 29 1019.8
20260503180005 16 204 0.0 4.8 0.00 0.00 0.00 34 1019.9
20260503174503 16 238 0.0 1.6 0.00 0.00 0.00 33 1020.2
20260503173002 17 235 0.0 0.0 0.00 0.00 0.00 35 1020.2
20260503171600 15 267 0.0 3.2 0.00 0.00 0.00 38 1020.6
20260503130113 8 168 0.0 0.0 0.00 0.00 0.00 63 1021.5
20260503081533 7 100 0.0 0.0 0.00 0.00 0.00 63 1018.9
20260503071508 8 100 0.0 0.0 0.00 0.00 0.00 60 1018.2
20260503054554 10 102 0.0 0.0 0.00 0.00 0.00 53 1017.9
20260503053053 10 102 0.0 0.0 0.00 0.00 0.00 55 1017.9
20260503051556 10 102 0.0 0.0 0.00 0.00 0.00 53 1017.8
20260503050051 10 102 0.0 0.0 0.00 0.00 0.00 53 1017.7
20260503044557 10 102 0.0 0.0 0.00 0.00 0.00 52 1017.8
20260503043054 11 102 0.0 0.0 0.00 0.00 0.00 51 1017.7
20260503041544 11 102 0.0 0.0 0.00 0.00 0.00 50 1017.4
20260503040043 11 125 0.0 0.0 0.00 0.00 0.00 49 1017.4
20260503034541 11 143 0.0 0.0 0.00 0.00 0.00 48 1017.3
20260503033041 12 40 1.6 11.3 0.00 0.00 0.00 48 1017.4
20260503031541 12 117 0.0 0.0 0.00 0.00 0.00 48 1017.2
20260503030054 12 148 0.0 0.0 0.00 0.00 0.00 48 1017.1
20260503024540 12 266 0.0 0.0 0.00 0.00 0.00 47 1016.9
20260503023036 12 167 0.0 0.0 0.00 0.00 0.00 48 1016.9
20260503021538 12 167 0.0 0.0 0.00 0.00 0.00 46 1016.7
20260503020032 12 167 0.0 0.0 0.00 0.00 0.00 45 1016.5
20260503014530 12 238 0.0 3.2 0.00 0.00 0.00 47 1016.3
20260503013028 12 243 0.0 0.0 0.00 0.00 0.00 47 1016.1
20260503011526 11 242 0.0 0.0 0.00 0.00 0.00 48 1015.9
20260503010025 11 243 0.0 0.0 0.00 0.00 0.00 46 1015.6
20260503004523 12 244 0.0 0.0 0.00 0.00 0.00 44 1015.5
20260503003024 13 245 0.0 0.0 0.00 0.00 0.00 42 1015.3
20260503001523 13 245 0.0 1.6 0.00 0.00 0.00 39 1014.9
20260503000030 14 62 0.0 4.8 0.00 0.00 0.00 36 1014.8
20260502234522 14 133 0.0 1.6 0.00 0.00 0.00 36 1014.5
20260502233021 15 51 0.0 4.8 0.00 0.00 0.00 34 1014.4
20260502231521 15 198 0.0 3.2 0.00 0.00 0.00 35 1014.4
20260502230021 16 251 0.0 6.4 0.00 0.00 0.00 33 1014.3
20260502224520 15 269 0.0 12.9 0.00 0.00 0.00 32 1014.3